Location: Unspecified
(0.0000°N, 0.0000°E)
Time: 15:43:19
(UTC+00:00)

SJ 16-02 - Visible Passes

Search period start: 02 March 2024 00:00
Search period end: 12 March 2024 00:00
Orbit: 595 x 609 km, 75.0° (Epoch: 02 March)

Date Brightness Start Highest point End Pass type
(mag) Time Alt. Az. Time Alt. Az. Time Alt. Az.
02 Mar 3.7 04:25:53 10° NNE 04:29:17 22° ENE 04:32:40 10° SE visible
03 Mar 2.2 04:37:00 10° N 04:41:11 48° E 04:45:22 10° SSE visible
04 Mar 1.1 04:50:32 24° NNW 04:53:04 75° W 04:57:24 10° S visible
05 Mar 1.9 05:04:22 32° W 05:04:58 33° WSW 05:08:52 10° SSW visible
06 Mar 4.3 03:41:02 13° ESE 03:41:02 13° ESE 03:41:51 10° SE visible
06 Mar 3.1 05:17:56 15° WSW 05:17:56 15° WSW 05:19:30 10° SW visible
07 Mar 4.1 03:54:24 12° SSE 03:54:24 12° SSE 03:54:43 10° SSE visible
